Simultaneous Nadir Overpasses (SNOs) Predictions

Prediction of SNOs between FY3D and NOAA-19 Satellite Orbit:

Table of predicted SNOs for the next 14.0 days since TLE Epoch: 7/17/2021
Index Date (FY3D) Time (FY3D) Lat,Lon (FY3D) SZA (FY3D ) Date (NOAA-19) Time (NOAA-19) Lat,Lon (NOAA-19) SZA (NOAA-19 ) Distance(km) Time Diff (sec)
1 07/17/2021 04:19:33 78.38, 91.37 58.38 07/17/2021 04:18:41 78.41, 91.37 58.43 3.77 52
2 07/17/2021 05:10:18 -78.40,-101.44 121.59 07/17/2021 05:09:46 -78.40,-101.47 121.57 0.74 32
3 07/17/2021 06:01:03 78.42, 65.76 58.45 07/17/2021 06:00:42 78.39, 65.70 58.44 3.88 21
4 07/17/2021 06:51:47 -78.40,-126.82 121.57 07/17/2021 06:51:46 -78.41,-126.89 121.55 2.05 1
5 07/17/2021 07:42:32 78.42, 40.38 58.47 07/17/2021 07:42:41 78.43, 40.51 58.46 3.15 9
6 07/17/2021 08:33:17 -78.44,-152.43 121.50 07/17/2021 08:33:46 -78.42,-152.32 121.54 3.20 29
7 07/17/2021 09:24:01 78.42, 14.99 58.48 07/17/2021 09:24:41 78.44, 15.08 58.48 2.83 40
8 07/17/2021 10:14:46 -78.45,-177.81 121.49 07/17/2021 10:15:46 -78.43,-177.75 121.52 1.85 60
9 07/17/2021 11:05:30 78.43, -10.39 58.50 07/17/2021 11:06:41 78.45, -10.35 58.49 3.12 71
10 07/30/2021 21:17:44 -78.34, 17.14 118.82 07/30/2021 21:16:38 -78.36, 17.11 118.77 2.70 66
11 07/30/2021 22:08:29 78.38,-175.74 61.24 07/30/2021 22:07:32 78.36,-175.63 61.24 2.84 57
12 07/30/2021 22:59:14 -78.38, -8.47 118.74 07/30/2021 22:58:38 -78.37, -8.32 118.75 3.33 36
13 07/30/2021 23:49:58 78.38, 158.87 61.26 07/30/2021 23:49:32 78.37, 158.94 61.26 1.51 26
14 07/31/2021 00:40:43 -78.38, -33.85 118.72 07/31/2021 00:40:38 -78.39, -33.76 118.73 2.17 5
15 07/31/2021 01:31:27 78.38, 133.49 61.28 07/31/2021 01:31:32 78.38, 133.51 61.28 0.45 5
16 07/31/2021 02:22:12 -78.39, -59.24 118.70 07/31/2021 02:22:38 -78.40, -59.19 118.71 1.43 26



Historial Predications of SNOs between FY3D and NOAA-19
